Time,TemperatureF,DewpointF,PressureIn,WindDirection,WindDirectionDegrees,WindSpeedMPH,WindSpeedGustMPH,Humidity,HourlyPrecipIn,Conditions,Clouds,dailyrainin,SolarRadiationWatts/m^2,SoftwareType,DateUTC
2014-01-24 00:01:00,38.3,37.0,29.55,East,80,10.4,10.4,95,0.00,RA,,0.00,0.0,WeatherDisplay:10.37,2014-01-24 09:01:00,
2014-01-24 00:06:00,38.3,37.0,29.55,ENE,69,9.2,9.2,95,0.00,RA,,0.00,0.0,WeatherDisplay:10.37,2014-01-24 09:06:00,
2014-01-24 00:11:00,38.2,36.9,29.55,ENE,58,6.9,6.9,95,0.00,OVC,,0.00,0.0,WeatherDisplay:10.37,2014-01-24 09:11:00,
2014-01-24 00:16:00,38.2,36.9,29.56,ENE,57,7.0,7.0,95,0.00,OVC,,0.00,0.0,WeatherDisplay:10.37,2014-01-24 09:16:00,
2014-01-24 00:21:00,38.3,37.0,29.56,NE,41,8.1,8.1,95,0.00,OVC,,0.00,0.0,WeatherDisplay:10.37,2014-01-24 09:21:00,
2014-01-24 00:26:00,38.2,36.9,29.56,ENE,73,3.5,3.5,95,0.00,OVC,,0.00,0.0,WeatherDisplay:10.37,2014-01-24 09:26:00,
2014-01-24 00:31:00,38.2,36.6,29.55,NE,48,4.0,4.0,94,0.00,OVC,,0.00,0.0,WeatherDisplay:10.37,2014-01-24 09:31:00,
2014-01-24 00:36:00,38.0,36.4,29.55,NE,53,6.0,6.0,94,0.00,OVC,,0.00,0.0,WeatherDisplay:10.37,2014-01-24 09:36:00,
2014-01-24 00:41:00,38.0,36.7,29.55,East,91,5.8,5.8,95,0.00,OVC,,0.00,0.0,WeatherDisplay:10.37,2014-01-24 09:41:00,
2014-01-24 00:46:00,38.0,36.7,29.55,North,355,5.8,5.8,95,0.00,OVC,,0.00,0.0,WeatherDisplay:10.37,2014-01-24 09:46:00,
2014-01-24 00:52:00,38.0,36.7,29.55,East,84,5.8,5.8,95,0.00,OVC,,0.00,0.0,WeatherDisplay:10.37,2014-01-24 09:52:00,
2014-01-24 00:57:00,38.0,36.7,29.55,NE,37,6.9,6.9,95,0.00,OVC,,0.00,0.0,WeatherDisplay:10.37,2014-01-24 09:57:00,
2014-01-24 01:02:00,37.9,36.6,29.54,NE,39,8.1,8.1,95,0.00,-RA,,0.03,0.0,WeatherDisplay:10.37,2014-01-24 10:02:00,
2014-01-24 01:07:00,37.9,36.6,29.53,ENE,69,5.8,5.8,95,0.03,-RA,,0.03,0.0,WeatherDisplay:10.37,2014-01-24 10:07:00,
2014-01-24 01:12:00,37.9,36.6,29.53,ENE,64,9.2,9.2,95,0.03,-RA,,0.03,0.0,WeatherDisplay:10.37,2014-01-24 10:12:00,
2014-01-24 01:17:00,37.9,36.6,29.53,ENE,72,6.9,6.9,95,0.03,-RA,,0.03,0.0,WeatherDisplay:10.37,2014-01-24 10:17:00,
2014-01-24 01:22:00,37.9,36.6,29.52,ENE,70,9.2,9.2,95,0.03,-RA,,0.03,0.0,WeatherDisplay:10.37,2014-01-24 10:22:00,
2014-01-24 01:27:00,37.9,36.6,29.52,NE,40,6.9,6.9,95,0.03,-RA,,0.03,0.0,WeatherDisplay:10.37,2014-01-24 10:27:00,
2014-01-24 01:32:00,38.0,36.7,29.51,ENE,75,5.8,5.8,95,0.03,-RA,,0.03,0.0,WeatherDisplay:10.37,2014-01-24 10:32:00,
2014-01-24 01:37:00,38.1,36.8,29.53,NE,38,4.6,4.6,95,0.03,-RA,,0.03,0.0,WeatherDisplay:10.37,2014-01-24 10:37:00,
2014-01-24 01:42:00,38.2,37.2,29.52,NNE,32,3.5,3.5,96,0.03,-RA,,0.03,0.0,WeatherDisplay:10.37,2014-01-24 10:42:00,
2014-01-24 01:47:00,38.1,36.8,29.53,East,80,3.5,3.5,95,0.04,-RA,,0.04,0.0,WeatherDisplay:10.37,2014-01-24 10:47:00,
2014-01-24 01:52:00,38.1,36.8,29.53,ENE,66,4.6,4.6,95,0.04,-RA,,0.04,0.0,WeatherDisplay:10.37,2014-01-24 10:52:00,
2014-01-24 01:57:00,38.1,36.8,29.53,NE,48,4.6,4.6,95,0.04,-RA,,0.04,0.0,WeatherDisplay:10.37,2014-01-24 10:57:00,
2014-01-24 02:02:00,38.0,36.7,29.54,ENE,77,4.6,4.6,95,0.04,-RA,,0.07,0.0,WeatherDisplay:10.37,2014-01-24 11:02:00,
2014-01-24 02:07:00,37.9,36.6,29.54,ENE,67,3.5,3.5,95,0.04,-RA,,0.07,0.0,WeatherDisplay:10.37,2014-01-24 11:07:00,
2014-01-24 02:12:00,37.9,36.6,29.55,East,92,5.0,5.0,95,0.04,-RA,,0.07,0.0,WeatherDisplay:10.37,2014-01-24 11:12:00,
2014-01-24 02:17:00,37.9,36.9,29.55,East,96,3.5,3.5,96,0.05,-RA,,0.08,0.0,WeatherDisplay:10.37,2014-01-24 11:17:00,
2014-01-24 02:22:00,37.8,36.8,29.56,NNE,30,5.0,5.0,96,0.06,-RA,,0.09,0.0,WeatherDisplay:10.37,2014-01-24 11:22:00,
2014-01-24 02:27:00,37.8,36.8,29.56,ENE,69,3.5,3.5,96,0.06,-RA,,0.09,0.0,WeatherDisplay:10.37,2014-01-24 11:27:00,
2014-01-24 02:32:00,37.7,36.7,29.57,NE,44,4.6,4.6,96,0.07,-RA,,0.10,0.0,WeatherDisplay:10.37,2014-01-24 11:32:00,
2014-01-24 02:37:00,37.8,36.8,29.57,ENE,67,2.3,2.3,96,0.07,-RA,,0.10,0.0,WeatherDisplay:10.37,2014-01-24 11:37:00,
2014-01-24 02:42:00,37.8,36.8,29.57,NE,49,3.5,3.5,96,0.08,-RA,,0.11,0.0,WeatherDisplay:10.37,2014-01-24 11:42:00,
2014-01-24 02:47:00,37.7,36.7,29.57,East,80,4.6,4.6,96,0.07,-RA,,0.11,0.0,WeatherDisplay:10.37,2014-01-24 11:47:00,
2014-01-24 02:52:00,37.7,36.7,29.56,NE,47,3.5,3.5,96,0.07,-RA,,0.11,0.0,WeatherDisplay:10.37,2014-01-24 11:52:00,
2014-01-24 02:57:00,37.7,36.7,29.56,NE,47,3.5,3.5,96,0.07,-RA,,0.11,0.0,WeatherDisplay:10.37,2014-01-24 11:57:00,
2014-01-24 03:02:00,37.6,36.6,29.56,NE,48,4.0,4.0,96,0.05,-RA,,0.12,0.0,WeatherDisplay:10.37,2014-01-24 12:02:00,
2014-01-24 03:07:00,37.5,36.5,29.56,NE,44,4.6,4.6,96,0.06,-RA,,0.13,0.0,WeatherDisplay:10.37,2014-01-24 12:07:00,
2014-01-24 03:12:00,37.5,36.5,29.57,NE,34,4.6,4.6,96,0.06,-RA,,0.13,0.0,WeatherDisplay:10.37,2014-01-24 12:12:00,
2014-01-24 03:17:00,37.5,36.5,29.57,NE,46,3.5,3.5,96,0.05,-RA,,0.13,0.0,WeatherDisplay:10.37,2014-01-24 12:17:00,
2014-01-24 03:22:00,37.5,36.5,29.57,NE,46,3.5,3.5,96,0.05,-RA,,0.14,0.0,WeatherDisplay:10.37,2014-01-24 12:22:00,
2014-01-24 03:27:00,37.5,36.5,29.57,East,80,2.3,2.3,96,0.05,-RA,,0.14,0.0,WeatherDisplay:10.37,2014-01-24 12:27:00,
2014-01-24 03:32:00,37.5,36.5,29.57,East,79,4.6,4.6,96,0.04,-RA,,0.14,0.0,WeatherDisplay:10.37,2014-01-24 12:32:00,
2014-01-24 03:37:00,37.5,36.7,29.58,ENE,78,3.5,3.5,97,0.05,-RA,,0.15,0.0,WeatherDisplay:10.37,2014-01-24 12:37:00,
2014-01-24 03:42:00,37.5,36.5,29.58,ENE,74,3.5,3.5,96,0.04,-RA,,0.15,0.0,WeatherDisplay:10.37,2014-01-24 12:42:00,
2014-01-24 03:47:00,37.5,36.7,29.58,NE,42,3.5,3.5,97,0.04,-RA,,0.15,0.0,WeatherDisplay:10.37,2014-01-24 12:47:00,
2014-01-24 03:52:00,37.5,36.7,29.58,East,98,4.6,4.6,97,0.04,-RA,,0.15,0.0,WeatherDisplay:10.37,2014-01-24 12:52:00,
2014-01-24 03:57:00,37.6,36.8,29.58,NE,54,2.3,2.3,97,0.04,-RA,,0.15,0.0,WeatherDisplay:10.37,2014-01-24 12:57:00,
2014-01-24 04:02:00,37.6,36.8,29.59,NNE,32,3.5,3.5,97,0.06,RA,,0.18,0.0,WeatherDisplay:10.37,2014-01-24 13:02:00,
2014-01-24 04:07:00,37.7,36.9,29.59,NNE,32,3.5,3.5,97,0.05,RA,,0.18,0.0,WeatherDisplay:10.37,2014-01-24 13:07:00,
2014-01-24 04:12:00,37.7,36.9,29.60,NNE,32,1.2,1.2,97,0.05,OVC,,0.18,0.0,WeatherDisplay:10.37,2014-01-24 13:12:00,
2014-01-24 04:17:00,37.6,36.8,29.61,NNE,32,1.2,1.2,97,0.05,OVC,,0.18,0.0,WeatherDisplay:10.37,2014-01-24 13:17:00,
2014-01-24 04:22:00,37.6,36.8,29.61,NNE,33,2.3,2.3,97,0.04,OVC,,0.18,0.0,WeatherDisplay:10.37,2014-01-24 13:22:00,
2014-01-24 04:27:00,37.6,36.8,29.61,NNE,32,3.5,3.5,97,0.04,OVC,,0.18,0.0,WeatherDisplay:10.37,2014-01-24 13:27:00,
2014-01-24 04:32:00,37.7,36.9,29.62,NNE,32,2.3,2.3,97,0.04,OVC,,0.18,0.0,WeatherDisplay:10.37,2014-01-24 13:32:00,
2014-01-24 04:37:00,37.7,36.9,29.62,NNE,32,3.5,3.5,97,0.03,OVC,,0.18,0.0,WeatherDisplay:10.37,2014-01-24 13:37:00,
2014-01-24 04:42:00,37.7,36.9,29.62,NNE,32,1.2,0.0,97,0.03,OVC,,0.18,0.0,WeatherDisplay:10.37,2014-01-24 13:42:00,
2014-01-24 04:47:00,37.7,36.9,29.62,NNE,32,1.2,1.2,97,0.03,OVC,,0.18,0.0,WeatherDisplay:10.37,2014-01-24 13:47:00,
2014-01-24 04:52:00,37.6,36.8,29.62,NE,34,2.0,2.0,97,0.03,OVC,,0.18,0.0,WeatherDisplay:10.37,2014-01-24 13:52:00,
2014-01-24 04:57:00,37.5,36.7,29.63,NE,38,3.5,3.5,97,0.03,OVC,,0.18,0.0,WeatherDisplay:10.37,2014-01-24 13:57:00,
2014-01-24 05:02:00,37.6,36.8,29.63,NE,38,1.2,1.2,97,0.01,RA,,0.19,0.0,WeatherDisplay:10.37,2014-01-24 14:02:00,
2014-01-24 05:07:00,37.7,36.9,29.64,NE,38,1.2,1.2,97,0.01,RA,,0.19,0.0,WeatherDisplay:10.37,2014-01-24 14:07:00,
2014-01-24 05:12:00,37.7,36.9,29.64,NE,38,3.5,3.5,97,0.01,OVC,,0.20,0.0,WeatherDisplay:10.37,2014-01-24 14:12:00,
2014-01-24 05:17:00,37.7,36.9,29.64,NE,38,2.3,2.3,97,0.02,RA,,0.20,0.0,WeatherDisplay:10.37,2014-01-24 14:17:00,
2014-01-24 05:22:00,37.7,36.9,29.64,NE,38,1.2,1.2,97,0.02,RA,,0.20,0.0,WeatherDisplay:10.37,2014-01-24 14:22:00,
2014-01-24 05:27:00,37.7,36.9,29.65,NE,38,2.3,2.3,97,0.02,OVC,,0.20,0.0,WeatherDisplay:10.37,2014-01-24 14:27:00,
2014-01-24 05:32:00,37.7,36.9,29.66,NE,38,1.2,1.2,97,0.02,OVC,,0.20,0.0,WeatherDisplay:10.37,2014-01-24 14:32:00,
2014-01-24 05:37:00,37.6,36.8,29.66,NE,38,2.0,2.0,97,0.02,OVC,,0.20,0.0,WeatherDisplay:10.37,2014-01-24 14:37:00,
2014-01-24 05:42:00,37.5,36.7,29.66,NE,38,1.2,1.2,97,0.02,OVC,,0.20,0.0,WeatherDisplay:10.37,2014-01-24 14:42:00,
2014-01-24 05:47:00,37.4,36.6,29.67,NE,38,1.2,1.2,97,0.02,OVC,,0.20,0.0,WeatherDisplay:10.37,2014-01-24 14:47:00,
2014-01-24 05:52:00,37.4,36.6,29.67,ENE,76,2.3,2.3,97,0.02,OVC,,0.20,0.0,WeatherDisplay:10.37,2014-01-24 14:52:00,
2014-01-24 05:57:00,37.5,36.7,29.67,ENE,76,1.2,1.2,97,0.02,OVC,,0.20,0.0,WeatherDisplay:10.37,2014-01-24 14:57:00,
2014-01-24 06:02:00,37.6,36.8,29.68,SE,133,2.3,2.3,97,0.02,RA,,0.21,0.0,WeatherDisplay:10.37,2014-01-24 15:02:00,
2014-01-24 06:07:00,37.7,36.9,29.68,ESE,120,2.3,2.3,97,0.02,RA,,0.21,0.0,WeatherDisplay:10.37,2014-01-24 15:07:00,
2014-01-24 06:12:00,37.5,36.7,29.69,ESE,120,1.2,0.0,97,0.02,OVC,,0.21,0.0,WeatherDisplay:10.37,2014-01-24 15:12:00,
2014-01-24 06:17:00,37.4,36.6,29.69,ESE,108,3.5,3.5,97,0.01,OVC,,0.21,0.0,WeatherDisplay:10.37,2014-01-24 15:17:00,
2014-01-24 06:22:00,37.2,36.4,29.70,WSW,256,1.2,1.2,97,0.01,OVC,,0.21,0.0,WeatherDisplay:10.37,2014-01-24 15:22:00,
2014-01-24 06:27:00,37.0,36.2,29.71,WSW,256,2.3,2.3,97,0.01,OVC,,0.21,0.0,WeatherDisplay:10.37,2014-01-24 15:27:00,
2014-01-24 06:32:00,36.8,36.0,29.72,WSW,256,0.0,0.0,97,0.01,OVC,,0.21,0.0,WeatherDisplay:10.37,2014-01-24 15:32:00,
2014-01-24 06:37:00,36.6,35.8,29.72,WSW,256,1.2,0.0,97,0.01,OVC,,0.21,0.0,WeatherDisplay:10.37,2014-01-24 15:37:00,
2014-01-24 06:42:00,36.5,35.7,29.73,WSW,256,0.0,0.0,97,0.01,OVC,,0.21,0.0,WeatherDisplay:10.37,2014-01-24 15:42:00,
2014-01-24 06:47:00,36.4,35.6,29.73,WSW,256,1.2,1.2,97,0.01,OVC,,0.21,0.0,WeatherDisplay:10.37,2014-01-24 15:47:00,
2014-01-24 06:52:00,36.3,35.5,29.73,WSW,256,1.0,1.0,97,0.01,OVC,,0.21,0.0,WeatherDisplay:10.37,2014-01-24 15:52:00,
2014-01-24 06:57:00,36.1,35.3,29.73,WSW,256,0.0,0.0,97,0.01,OVC,,0.21,0.0,WeatherDisplay:10.37,2014-01-24 15:57:00,
2014-01-24 07:02:00,36.0,35.2,29.74,WSW,256,0.0,0.0,97,0.00,OVC,,0.21,0.0,WeatherDisplay:10.37,2014-01-24 16:02:00,
2014-01-24 07:07:00,35.9,35.1,29.75,WSW,256,2.0,2.0,97,0.00,OVC,,0.21,0.0,WeatherDisplay:10.37,2014-01-24 16:07:00,
2014-01-24 07:12:00,35.7,34.9,29.75,WSW,256,1.2,1.2,97,0.00,OVC,,0.21,0.0,WeatherDisplay:10.37,2014-01-24 16:12:00,
2014-01-24 07:17:00,35.5,34.7,29.76,WSW,256,2.3,2.3,97,0.00,OVC,,0.21,0.0,WeatherDisplay:10.37,2014-01-24 16:17:00,
2014-01-24 07:22:00,35.4,34.6,29.76,WSW,256,0.0,0.0,97,0.00,OVC,,0.21,0.0,WeatherDisplay:10.37,2014-01-24 16:22:00,
2014-01-24 07:27:00,35.4,34.6,29.76,WSW,256,0.0,0.0,97,0.00,OVC,,0.21,0.0,WeatherDisplay:10.37,2014-01-24 16:27:00,
2014-01-24 07:32:00,35.3,34.5,29.77,WSW,256,1.2,0.0,97,0.00,OVC,,0.21,0.0,WeatherDisplay:10.37,2014-01-24 16:32:00,
2014-01-24 07:37:00,35.4,34.6,29.77,WSW,256,0.0,0.0,97,0.00,OVC,,0.21,0.0,WeatherDisplay:10.37,2014-01-24 16:37:00,
2014-01-24 07:42:00,35.4,34.6,29.77,WSW,256,1.0,1.0,97,0.00,OVC,,0.21,0.0,WeatherDisplay:10.37,2014-01-24 16:42:00,
2014-01-24 07:47:00,35.4,34.6,29.77,WSW,256,0.0,0.0,97,0.00,OVC,,0.21,0.0,WeatherDisplay:10.37,2014-01-24 16:47:00,
2014-01-24 07:52:00,35.4,34.6,29.78,WSW,256,0.0,0.0,97,0.00,OVC,,0.21,0.0,WeatherDisplay:10.37,2014-01-24 16:52:00,
2014-01-24 07:57:00,35.4,34.6,29.78,WSW,256,1.0,1.0,97,0.00,OVC,,0.21,0.0,WeatherDisplay:10.37,2014-01-24 16:57:00,
2014-01-24 08:02:00,35.3,34.5,29.78,WSW,256,0.0,0.0,97,0.00,OVC,,0.21,0.0,WeatherDisplay:10.37,2014-01-24 17:02:00,
2014-01-24 08:07:00,35.2,34.4,29.78,WSW,256,0.0,0.0,97,0.00,OVC,,0.21,0.0,WeatherDisplay:10.37,2014-01-24 17:07:00,
2014-01-24 08:12:00,35.1,34.3,29.79,WSW,256,0.0,0.0,97,0.00,OVC,,0.21,0.0,WeatherDisplay:10.37,2014-01-24 17:12:00,
2014-01-24 08:17:00,35.0,34.2,29.80,WSW,256,0.0,0.0,97,0.00,OVC,,0.21,0.0,WeatherDisplay:10.37,2014-01-24 17:17:00,
2014-01-24 08:22:00,34.9,34.1,29.80,WSW,256,0.0,0.0,97,0.00,OVC,,0.21,0.0,WeatherDisplay:10.37,2014-01-24 17:22:00,
2014-01-24 08:27:00,34.7,33.9,29.80,WSW,256,0.0,0.0,97,0.00,OVC,,0.21,0.0,WeatherDisplay:10.37,2014-01-24 17:27:00,
2014-01-24 08:32:00,34.6,33.8,29.81,WSW,256,0.0,0.0,97,0.00,OVC,,0.21,0.0,WeatherDisplay:10.37,2014-01-24 17:32:00,
2014-01-24 08:37:00,34.3,33.5,29.81,WSW,256,0.0,0.0,97,0.00,OVC,,0.21,0.0,WeatherDisplay:10.37,2014-01-24 17:37:00,
2014-01-24 08:42:00,34.2,33.4,29.81,WSW,256,0.0,0.0,97,0.00,OVC,,0.21,0.0,WeatherDisplay:10.37,2014-01-24 17:42:00,
2014-01-24 08:47:00,34.1,33.3,29.82,South,175,1.2,1.2,97,0.00,OVC,,0.21,0.0,WeatherDisplay:10.37,2014-01-24 17:47:00,
2014-01-24 08:52:00,34.0,33.2,29.83,South,175,0.0,0.0,97,0.00,OVC,,0.21,0.0,WeatherDisplay:10.37,2014-01-24 17:52:00,
2014-01-24 08:57:00,34.1,33.3,29.83,South,175,0.0,0.0,97,0.00,OVC,,0.21,0.0,WeatherDisplay:10.37,2014-01-24 17:57:00,
2014-01-24 09:02:00,34.0,33.2,29.83,South,175,0.0,0.0,97,0.00,SCT,,0.21,0.0,WeatherDisplay:10.37,2014-01-24 18:02:00,
2014-01-24 09:07:00,33.9,33.1,29.84,South,175,0.0,0.0,97,0.00,SCT,,0.21,0.0,WeatherDisplay:10.37,2014-01-24 18:07:00,
2014-01-24 09:12:00,33.9,33.1,29.84,South,175,0.0,0.0,97,0.00,SCT,,0.21,0.0,WeatherDisplay:10.37,2014-01-24 18:12:00,
2014-01-24 09:17:00,33.8,33.0,29.84,South,175,0.0,0.0,97,0.00,SCT,,0.21,0.0,WeatherDisplay:10.37,2014-01-24 18:17:00,
2014-01-24 09:22:00,33.9,33.1,29.84,South,175,0.0,0.0,97,0.00,SCT,,0.21,0.0,WeatherDisplay:10.37,2014-01-24 18:22:00,
2014-01-24 09:27:00,33.9,33.1,29.85,South,175,0.0,0.0,97,0.00,SCT,,0.21,0.0,WeatherDisplay:10.37,2014-01-24 18:27:00,
2014-01-24 09:32:00,33.8,33.0,29.85,South,175,1.0,1.0,97,0.00,SCT,,0.21,0.0,WeatherDisplay:10.37,2014-01-24 18:32:00,
2014-01-24 09:37:00,33.8,33.0,29.86,South,175,1.2,1.2,97,0.00,SCT,,0.21,0.0,WeatherDisplay:10.37,2014-01-24 18:37:00,
2014-01-24 09:42:00,33.6,32.8,29.86,South,175,0.0,0.0,97,0.00,SCT,,0.21,0.0,WeatherDisplay:10.37,2014-01-24 18:42:00,
2014-01-24 09:47:00,33.5,32.7,29.86,South,175,0.0,0.0,97,0.00,SCT,,0.21,0.0,WeatherDisplay:10.37,2014-01-24 18:47:00,
2014-01-24 09:52:00,33.3,32.5,29.87,South,175,1.2,0.0,97,0.00,SCT,,0.21,5.0,WeatherDisplay:10.37,2014-01-24 18:52:00,
2014-01-24 09:57:00,33.2,32.4,29.87,South,175,1.0,0.0,97,0.00,SCT,,0.21,5.0,WeatherDisplay:10.37,2014-01-24 18:57:00,
2014-01-24 10:02:00,32.9,32.1,29.88,South,175,1.2,0.0,97,0.00,FEW,,0.21,7.0,WeatherDisplay:10.37,2014-01-24 19:02:00,
2014-01-24 10:07:00,32.8,32.0,29.88,South,175,0.0,0.0,97,0.00,FEW,,0.21,7.0,WeatherDisplay:10.37,2014-01-24 19:07:00,
2014-01-24 10:12:00,32.7,31.9,29.89,South,175,0.0,0.0,97,0.00,FEW,,0.21,9.0,WeatherDisplay:10.37,2014-01-24 19:12:00,
2014-01-24 10:17:00,32.6,31.8,29.89,South,175,1.2,0.0,97,0.00,FEW,,0.21,9.0,WeatherDisplay:10.37,2014-01-24 19:17:00,
2014-01-24 10:22:00,32.5,31.7,29.90,South,175,1.2,0.0,97,0.00,FEW,,0.21,11.0,WeatherDisplay:10.37,2014-01-24 19:22:00,
2014-01-24 10:27:00,32.5,31.7,29.90,South,171,1.2,0.0,97,0.00,FEW,,0.21,12.0,WeatherDisplay:10.37,2014-01-24 19:27:00,
2014-01-24 10:32:00,32.5,31.7,29.90,South,171,0.0,0.0,97,0.00,FEW,,0.21,11.0,WeatherDisplay:10.37,2014-01-24 19:32:00,
2014-01-24 10:37:00,32.5,31.7,29.91,South,171,0.0,0.0,97,0.00,FEW,,0.21,12.0,WeatherDisplay:10.37,2014-01-24 19:37:00,
2014-01-24 10:42:00,32.4,31.6,29.92,South,171,1.2,0.0,97,0.00,FEW,,0.21,12.0,WeatherDisplay:10.37,2014-01-24 19:42:00,
2014-01-24 10:47:00,32.4,31.6,29.91,South,171,0.0,0.0,97,0.00,FEW,,0.21,14.0,WeatherDisplay:10.37,2014-01-24 19:47:00,
2014-01-24 10:52:00,32.4,31.6,29.92,South,171,0.0,0.0,97,0.00,FEW,,0.21,16.0,WeatherDisplay:10.37,2014-01-24 19:52:00,
2014-01-24 10:57:00,32.5,31.7,29.92,South,171,0.0,0.0,97,0.00,FEW,,0.21,16.0,WeatherDisplay:10.37,2014-01-24 19:57:00,
2014-01-24 11:02:00,32.8,32.0,29.93,SW,235,3.5,3.5,97,0.00,CLR,,0.21,16.0,WeatherDisplay:10.37,2014-01-24 20:02:00,
2014-01-24 11:07:00,33.7,33.2,29.94,ESE,107,2.0,2.0,98,0.00,CLR,,0.21,14.0,WeatherDisplay:10.37,2014-01-24 20:07:00,
2014-01-24 11:12:00,33.9,33.4,29.94,ESE,107,0.0,0.0,98,0.00,CLR,,0.21,14.0,WeatherDisplay:10.37,2014-01-24 20:12:00,
2014-01-24 11:17:00,34.1,33.6,29.94,ESE,107,0.0,0.0,98,0.00,CLR,,0.21,18.0,WeatherDisplay:10.37,2014-01-24 20:17:00,
2014-01-24 11:22:00,34.0,33.5,29.94,ESE,107,1.0,1.0,98,0.00,CLR,,0.21,32.0,WeatherDisplay:10.37,2014-01-24 20:22:00,
2014-01-24 11:27:00,33.9,33.4,29.95,ESE,107,0.0,0.0,98,0.00,CLR,,0.21,32.0,WeatherDisplay:10.37,2014-01-24 20:27:00,
2014-01-24 11:32:00,33.7,33.2,29.95,ESE,107,0.0,0.0,98,0.00,CLR,,0.21,30.0,WeatherDisplay:10.37,2014-01-24 20:32:00,
2014-01-24 11:37:00,33.7,32.9,29.95,ESE,107,0.0,0.0,97,0.00,CLR,,0.21,35.0,WeatherDisplay:10.37,2014-01-24 20:37:00,
2014-01-24 11:42:00,33.8,33.3,29.96,ESE,107,0.0,0.0,98,0.00,CLR,,0.21,28.0,WeatherDisplay:10.37,2014-01-24 20:42:00,
2014-01-24 11:48:00,34.0,33.2,29.96,ESE,107,0.0,0.0,97,0.00,CLR,,0.21,54.0,WeatherDisplay:10.37,2014-01-24 20:48:00,
2014-01-24 11:53:00,34.2,33.7,29.97,ESE,107,0.0,0.3,98,0.00,CLR,,0.21,76.0,WeatherDisplay:10.37,2014-01-24 20:53:00,
2014-01-24 11:58:00,34.6,34.1,29.97,ESE,107,1.2,1.2,98,0.00,CLR,,0.21,98.0,WeatherDisplay:10.37,2014-01-24 20:58:00,
2014-01-24 12:03:00,34.8,34.3,29.97,ESE,107,1.2,1.2,98,0.00,CLR,,0.21,30.0,WeatherDisplay:10.37,2014-01-24 21:03:00,
2014-01-24 12:08:00,35.1,34.6,29.97,ESE,107,0.0,0.0,98,0.00,CLR,,0.21,86.0,WeatherDisplay:10.37,2014-01-24 21:08:00,
2014-01-24 12:13:00,35.5,35.0,29.97,ESE,107,0.0,0.0,98,0.00,CLR,,0.21,74.0,WeatherDisplay:10.37,2014-01-24 21:13:00,
2014-01-24 12:18:00,36.1,35.6,29.98,ESE,107,1.2,1.2,98,0.00,CLR,,0.21,128.0,WeatherDisplay:10.37,2014-01-24 21:18:00,
2014-01-24 12:23:00,36.5,36.0,29.98,ESE,107,0.0,0.0,98,0.00,CLR,,0.21,97.0,WeatherDisplay:10.37,2014-01-24 21:23:00,
2014-01-24 12:28:00,36.9,36.4,29.98,ESE,107,1.2,1.2,98,0.00,CLR,,0.21,30.0,WeatherDisplay:10.37,2014-01-24 21:28:00,
2014-01-24 12:33:00,37.3,36.8,29.98,ESE,107,2.3,2.3,98,0.00,CLR,,0.21,67.0,WeatherDisplay:10.37,2014-01-24 21:33:00,
2014-01-24 12:38:00,37.6,37.1,29.99,ESE,107,3.5,3.5,98,0.00,CLR,,0.21,32.0,WeatherDisplay:10.37,2014-01-24 21:38:00,
2014-01-24 12:43:00,37.8,37.3,29.99,ESE,107,2.3,2.3,98,0.00,CLR,,0.21,28.0,WeatherDisplay:10.37,2014-01-24 21:43:00,
2014-01-24 12:48:00,37.8,37.3,29.99,ESE,107,2.3,2.3,98,0.00,CLR,,0.21,69.0,WeatherDisplay:10.37,2014-01-24 21:48:00,
2014-01-24 12:53:00,37.9,37.4,29.99,ESE,107,2.3,2.3,98,0.00,CLR,,0.21,28.0,WeatherDisplay:10.37,2014-01-24 21:53:00,
2014-01-24 12:58:00,38.0,37.5,29.99,ESE,107,2.3,2.3,98,0.00,CLR,,0.21,30.0,WeatherDisplay:10.37,2014-01-24 21:58:00,
2014-01-24 13:03:00,38.3,37.8,29.99,ESE,107,2.3,2.3,98,0.00,CLR,,0.21,54.0,WeatherDisplay:10.37,2014-01-24 22:03:00,
2014-01-24 13:08:00,38.5,38.0,29.99,ESE,107,2.3,2.3,98,0.00,CLR,,0.21,84.0,WeatherDisplay:10.37,2014-01-24 22:08:00,
2014-01-24 13:13:00,38.7,38.2,30.00,ESE,107,0.0,0.0,98,0.00,CLR,,0.21,32.0,WeatherDisplay:10.37,2014-01-24 22:13:00,
2014-01-24 13:18:00,38.9,38.4,30.00,ESE,107,0.0,0.0,98,0.00,CLR,,0.21,26.0,WeatherDisplay:10.37,2014-01-24 22:18:00,
2014-01-24 13:23:00,39.1,38.6,30.00,ESE,107,1.2,1.2,98,0.00,CLR,,0.21,33.0,WeatherDisplay:10.37,2014-01-24 22:23:00,
2014-01-24 13:28:00,39.2,38.7,30.00,ESE,107,0.0,0.0,98,0.00,CLR,,0.21,40.0,WeatherDisplay:10.37,2014-01-24 22:28:00,
2014-01-24 13:33:00,39.3,38.8,30.01,ESE,107,1.2,1.2,98,0.00,CLR,,0.21,51.0,WeatherDisplay:10.37,2014-01-24 22:33:00,
2014-01-24 13:38:00,39.5,39.0,30.01,ESE,107,1.2,0.0,98,0.00,CLR,,0.21,33.0,WeatherDisplay:10.37,2014-01-24 22:38:00,
2014-01-24 13:43:00,39.6,39.1,30.01,ESE,107,0.0,0.0,98,0.00,CLR,,0.21,25.0,WeatherDisplay:10.37,2014-01-24 22:43:00,
2014-01-24 13:48:00,39.5,39.0,30.01,ESE,107,1.2,1.2,98,0.00,CLR,,0.21,25.0,WeatherDisplay:10.37,2014-01-24 22:48:00,
2014-01-24 13:53:00,39.5,39.0,30.01,ESE,107,0.0,0.0,98,0.00,CLR,,0.21,26.0,WeatherDisplay:10.37,2014-01-24 22:53:00,
2014-01-24 13:58:00,39.6,39.1,30.02,ESE,107,1.2,0.0,98,0.00,CLR,,0.21,32.0,WeatherDisplay:10.37,2014-01-24 22:58:00,
2014-01-24 14:03:00,39.8,39.3,30.02,ESE,107,1.2,1.2,98,0.00,CLR,,0.21,25.0,WeatherDisplay:10.37,2014-01-24 23:03:00,
2014-01-24 14:08:00,40.0,39.5,30.02,ESE,107,2.3,2.3,98,0.00,CLR,,0.21,25.0,WeatherDisplay:10.37,2014-01-24 23:08:00,
2014-01-24 14:13:00,40.3,39.8,30.02,ESE,107,1.2,1.2,98,0.00,CLR,,0.21,25.0,WeatherDisplay:10.37,2014-01-24 23:13:00,
2014-01-24 14:18:00,40.7,40.2,30.02,ESE,107,2.3,2.3,98,0.00,CLR,,0.21,28.0,WeatherDisplay:10.37,2014-01-24 23:18:00,
2014-01-24 14:23:00,40.9,40.6,30.02,ESE,107,2.3,2.3,99,0.00,CLR,,0.21,23.0,WeatherDisplay:10.37,2014-01-24 23:23:00,
2014-01-24 14:28:00,40.9,40.6,30.02,ESE,107,3.5,3.5,99,0.00,CLR,,0.21,25.0,WeatherDisplay:10.37,2014-01-24 23:28:00,
2014-01-24 14:33:00,40.9,40.4,30.02,ESE,107,2.3,2.3,98,0.00,CLR,,0.21,23.0,WeatherDisplay:10.37,2014-01-24 23:33:00,
2014-01-24 14:38:00,40.9,40.4,30.02,ESE,107,1.2,1.2,98,0.00,CLR,,0.21,25.0,WeatherDisplay:10.37,2014-01-24 23:38:00,
2014-01-24 14:43:00,40.7,40.2,30.02,ESE,107,2.3,2.3,98,0.00,CLR,,0.21,23.0,WeatherDisplay:10.37,2014-01-24 23:43:00,
2014-01-24 14:48:00,40.7,40.2,30.02,ESE,107,1.2,1.2,98,0.00,CLR,,0.21,25.0,WeatherDisplay:10.37,2014-01-24 23:48:00,
2014-01-24 14:53:00,40.7,40.2,30.03,ESE,107,2.0,2.0,98,0.00,CLR,,0.21,25.0,WeatherDisplay:10.37,2014-01-24 23:53:00,
2014-01-24 14:58:00,40.6,40.1,30.03,ESE,107,2.3,2.3,98,0.00,CLR,,0.21,23.0,WeatherDisplay:10.37,2014-01-24 23:58:00,
2014-01-24 15:03:00,40.5,40.0,30.03,ESE,107,0.0,0.0,98,0.00,CLR,,0.21,23.0,WeatherDisplay:10.37,2014-01-25 00:03:00,
2014-01-24 15:08:00,40.3,39.5,30.03,ESE,107,0.0,0.0,97,0.00,CLR,,0.21,23.0,WeatherDisplay:10.37,2014-01-25 00:08:00,
2014-01-24 15:13:00,40.1,39.3,30.04,ESE,107,0.0,0.0,97,0.00,CLR,,0.21,26.0,WeatherDisplay:10.37,2014-01-25 00:13:00,
2014-01-24 15:18:00,39.8,39.0,30.04,ESE,107,0.0,0.0,97,0.00,CLR,,0.21,30.0,WeatherDisplay:10.37,2014-01-25 00:18:00,
2014-01-24 15:23:00,39.5,38.7,30.04,ESE,107,0.0,0.0,97,0.00,CLR,,0.21,33.0,WeatherDisplay:10.37,2014-01-25 00:23:00,
2014-01-24 15:28:00,39.3,38.5,30.04,ESE,107,0.0,0.0,97,0.00,CLR,,0.21,32.0,WeatherDisplay:10.37,2014-01-25 00:28:00,
2014-01-24 15:33:00,39.2,38.4,30.04,ESE,107,0.0,0.0,97,0.00,CLR,,0.21,28.0,WeatherDisplay:10.37,2014-01-25 00:33:00,
2014-01-24 15:38:00,39.1,38.3,30.04,ESE,107,0.0,0.0,97,0.00,CLR,,0.21,26.0,WeatherDisplay:10.37,2014-01-25 00:38:00,
2014-01-24 15:43:00,39.0,38.2,30.04,ESE,107,0.0,0.0,97,0.00,CLR,,0.21,25.0,WeatherDisplay:10.37,2014-01-25 00:43:00,
2014-01-24 15:48:00,38.9,38.1,30.04,ESE,107,0.0,0.0,97,0.00,CLR,,0.21,25.0,WeatherDisplay:10.37,2014-01-25 00:48:00,
2014-01-24 15:53:00,38.6,37.8,30.04,ESE,107,0.0,0.0,97,0.00,CLR,,0.21,23.0,WeatherDisplay:10.37,2014-01-25 00:53:00,
2014-01-24 15:58:00,38.2,37.4,30.05,ESE,107,0.0,0.0,97,0.00,CLR,,0.21,25.0,WeatherDisplay:10.37,2014-01-25 00:58:00,
2014-01-24 16:03:00,37.9,36.9,30.05,ESE,107,0.0,0.0,96,0.00,CLR,,0.21,21.0,WeatherDisplay:10.37,2014-01-25 01:03:00,
2014-01-24 16:08:00,37.7,36.9,30.05,ESE,107,1.2,1.2,97,0.00,CLR,,0.21,19.0,WeatherDisplay:10.37,2014-01-25 01:08:00,
2014-01-24 16:13:00,37.5,36.5,30.05,ESE,107,0.0,0.0,96,0.00,CLR,,0.21,16.0,WeatherDisplay:10.37,2014-01-25 01:13:00,
2014-01-24 16:18:00,37.2,36.2,30.06,ESE,107,0.0,0.0,96,0.00,CLR,,0.21,16.0,WeatherDisplay:10.37,2014-01-25 01:18:00,
2014-01-24 16:23:00,36.9,35.9,30.05,ESE,107,0.0,0.0,96,0.00,CLR,,0.21,16.0,WeatherDisplay:10.37,2014-01-25 01:23:00,
2014-01-24 16:28:00,36.6,35.6,30.05,ESE,107,0.0,0.0,96,0.00,CLR,,0.21,11.0,WeatherDisplay:10.37,2014-01-25 01:28:00,
2014-01-24 16:33:00,36.4,35.4,30.06,ESE,107,0.0,0.0,96,0.00,CLR,,0.21,7.0,WeatherDisplay:10.37,2014-01-25 01:33:00,
2014-01-24 16:38:00,36.2,35.2,30.06,ESE,107,0.0,0.0,96,0.00,CLR,,0.21,7.0,WeatherDisplay:10.37,2014-01-25 01:38:00,
2014-01-24 16:43:00,36.0,35.2,30.06,ESE,107,0.0,0.0,97,0.00,CLR,,0.21,5.0,WeatherDisplay:10.37,2014-01-25 01:43:00,
2014-01-24 16:48:00,35.9,35.1,30.06,ESE,107,0.0,0.0,97,0.00,CLR,,0.21,0.0,WeatherDisplay:10.37,2014-01-25 01:48:00,
2014-01-24 16:53:00,35.8,35.0,30.06,ESE,107,0.0,0.0,97,0.00,CLR,,0.21,0.0,WeatherDisplay:10.37,2014-01-25 01:53:00,
2014-01-24 16:58:00,35.4,34.4,30.06,ESE,107,0.0,0.0,96,0.00,CLR,,0.21,0.0,WeatherDisplay:10.37,2014-01-25 01:58:00,
2014-01-24 17:03:00,35.1,34.1,30.06,ESE,107,0.0,0.0,96,0.00,CLR,,0.21,0.0,WeatherDisplay:10.37,2014-01-25 02:03:00,
2014-01-24 17:08:00,34.8,33.8,30.06,ESE,107,0.0,0.0,96,0.00,CLR,,0.21,0.0,WeatherDisplay:10.37,2014-01-25 02:08:00,
2014-01-24 17:13:00,34.6,33.6,30.06,ESE,107,0.0,0.0,96,0.00,CLR,,0.21,0.0,WeatherDisplay:10.37,2014-01-25 02:13:00,
2014-01-24 17:18:00,34.4,33.4,30.06,ESE,107,0.0,0.0,96,0.00,CLR,,0.21,0.0,WeatherDisplay:10.37,2014-01-25 02:18:00,
2014-01-24 17:23:00,34.2,33.2,30.07,ESE,107,0.0,0.0,96,0.00,CLR,,0.21,0.0,WeatherDisplay:10.37,2014-01-25 02:23:00,
2014-01-24 17:28:00,33.9,32.9,30.07,ESE,107,0.0,0.0,96,0.00,CLR,,0.21,0.0,WeatherDisplay:10.37,2014-01-25 02:28:00,
2014-01-24 17:33:00,33.8,32.8,30.07,ESE,107,0.0,0.0,96,0.00,FEW,,0.21,0.0,WeatherDisplay:10.37,2014-01-25 02:33:00,
2014-01-24 17:38:00,33.7,32.9,30.07,ESE,107,0.0,0.0,97,0.00,FEW,,0.21,0.0,WeatherDisplay:10.37,2014-01-25 02:38:00,
2014-01-24 17:43:00,33.5,32.7,30.07,ESE,107,0.0,0.0,97,0.00,FEW,,0.21,0.0,WeatherDisplay:10.37,2014-01-25 02:43:00,
2014-01-24 17:48:00,33.4,32.4,30.08,ESE,107,0.0,0.0,96,0.00,FEW,,0.21,0.0,WeatherDisplay:10.37,2014-01-25 02:48:00,
2014-01-24 17:53:00,33.2,32.4,30.07,ESE,107,0.0,0.2,97,0.00,FEW,,0.21,0.0,WeatherDisplay:10.37,2014-01-25 02:53:00,
2014-01-24 17:58:00,33.2,32.4,30.08,ESE,107,2.3,2.3,97,0.00,FEW,,0.21,0.0,WeatherDisplay:10.37,2014-01-25 02:58:00,
2014-01-24 18:03:00,33.3,32.5,30.08,ESE,107,1.2,1.2,97,0.00,FEW,,0.21,0.0,WeatherDisplay:10.37,2014-01-25 03:03:00,
2014-01-24 18:08:00,33.3,32.5,30.08,ESE,107,3.5,3.5,97,0.00,FEW,,0.21,0.0,WeatherDisplay:10.37,2014-01-25 03:08:00,
2014-01-24 18:13:00,33.4,32.6,30.08,ESE,107,2.3,2.3,97,0.00,FEW,,0.21,0.0,WeatherDisplay:10.37,2014-01-25 03:13:00,
2014-01-24 18:18:00,33.8,33.3,30.08,ENE,70,2.3,2.3,98,0.00,FEW,,0.21,0.0,WeatherDisplay:10.37,2014-01-25 03:18:00,
2014-01-24 18:23:00,34.1,33.6,30.08,ENE,70,1.2,1.2,98,0.00,FEW,,0.21,0.0,WeatherDisplay:10.37,2014-01-25 03:23:00,
2014-01-24 18:28:00,34.2,33.7,30.09,ENE,70,1.2,1.2,98,0.00,FEW,,0.21,0.0,WeatherDisplay:10.37,2014-01-25 03:28:00,
2014-01-24 18:33:00,34.2,33.7,30.08,ENE,68,2.0,2.0,98,0.00,FEW,,0.21,0.0,WeatherDisplay:10.37,2014-01-25 03:33:00,
2014-01-24 18:38:00,34.2,33.7,30.09,ENE,68,2.3,2.3,98,0.00,FEW,,0.21,0.0,WeatherDisplay:10.37,2014-01-25 03:38:00,
2014-01-24 18:43:00,34.2,33.7,30.09,NE,40,3.5,3.5,98,0.00,FEW,,0.21,0.0,WeatherDisplay:10.37,2014-01-25 03:43:00,
2014-01-24 18:48:00,34.3,33.8,30.09,ENE,73,3.5,3.5,98,0.00,FEW,,0.21,0.0,WeatherDisplay:10.37,2014-01-25 03:48:00,
2014-01-24 18:53:00,34.4,33.9,30.09,NE,49,2.3,2.3,98,0.00,FEW,,0.21,0.0,WeatherDisplay:10.37,2014-01-25 03:53:00,
2014-01-24 18:58:00,34.4,33.9,30.09,ENE,59,2.0,2.0,98,0.00,FEW,,0.21,0.0,WeatherDisplay:10.37,2014-01-25 03:58:00,
2014-01-24 19:03:00,34.5,34.0,30.09,ENE,69,3.5,3.5,98,0.00,FEW,,0.21,0.0,WeatherDisplay:10.37,2014-01-25 04:03:00,
2014-01-24 19:08:00,34.5,34.0,30.09,NE,54,2.0,2.0,98,0.00,FEW,,0.21,0.0,WeatherDisplay:10.37,2014-01-25 04:08:00,
2014-01-24 19:13:00,34.5,34.0,30.09,NE,54,3.5,3.5,98,0.00,FEW,,0.21,0.0,WeatherDisplay:10.37,2014-01-25 04:13:00,
2014-01-24 19:18:00,34.4,33.9,30.10,NE,54,3.0,3.0,98,0.00,SCT,,0.21,0.0,WeatherDisplay:10.37,2014-01-25 04:18:00,
2014-01-24 19:23:00,34.3,33.8,30.09,NE,54,2.3,2.3,98,0.00,SCT,,0.21,0.0,WeatherDisplay:10.37,2014-01-25 04:23:00,
2014-01-24 19:28:00,34.3,33.8,30.09,NE,54,3.5,3.5,98,0.00,SCT,,0.21,0.0,WeatherDisplay:10.37,2014-01-25 04:28:00,
2014-01-24 19:33:00,34.4,33.9,30.09,NE,54,0.0,0.0,98,0.00,SCT,,0.21,0.0,WeatherDisplay:10.37,2014-01-25 04:33:00,
2014-01-24 19:38:00,34.4,33.9,30.10,NE,54,0.0,0.0,98,0.00,SCT,,0.21,0.0,WeatherDisplay:10.37,2014-01-25 04:38:00,
2014-01-24 19:43:00,34.4,33.9,30.10,NE,54,2.3,2.3,98,0.00,SCT,,0.21,0.0,WeatherDisplay:10.37,2014-01-25 04:43:00,
2014-01-24 19:48:00,34.4,33.9,30.10,NE,54,2.3,2.3,98,0.00,SCT,,0.21,0.0,WeatherDisplay:10.37,2014-01-25 04:48:00,
2014-01-24 19:53:00,34.3,33.8,30.10,NE,54,2.3,2.3,98,0.00,SCT,,0.21,0.0,WeatherDisplay:10.37,2014-01-25 04:53:00,
2014-01-24 19:58:00,34.3,33.8,30.10,NE,54,1.2,1.2,98,0.00,SCT,,0.21,0.0,WeatherDisplay:10.37,2014-01-25 04:58:00,
2014-01-24 20:01:00,34.2,33.7,30.10,NE,54,3.5,3.5,98,0.00,SCT,,0.21,0.0,WeatherDisplay:10.37,2014-01-25 05:01:00,
2014-01-24 20:07:00,34.0,33.2,30.10,NE,54,1.2,1.2,97,0.00,SCT,,0.21,0.0,WeatherDisplay:10.37,2014-01-25 05:07:00,
2014-01-24 20:12:00,33.8,33.0,30.10,NE,54,0.0,0.0,97,0.00,SCT,,0.21,0.0,WeatherDisplay:10.37,2014-01-25 05:12:00,
2014-01-24 20:17:00,33.5,32.7,30.10,NE,53,2.3,2.3,97,0.00,SCT,,0.21,0.0,WeatherDisplay:10.37,2014-01-25 05:17:00,
2014-01-24 20:22:00,33.5,32.7,30.10,NE,41,3.5,3.5,97,0.00,SCT,,0.21,0.0,WeatherDisplay:10.37,2014-01-25 05:22:00,
2014-01-24 20:27:00,33.6,33.1,30.10,East,98,2.3,2.3,98,0.00,SCT,,0.21,0.0,WeatherDisplay:10.37,2014-01-25 05:27:00,
2014-01-24 20:32:00,33.7,33.2,30.10,East,98,2.3,2.3,98,0.00,SCT,,0.21,0.0,WeatherDisplay:10.37,2014-01-25 05:32:00,
2014-01-24 20:37:00,33.7,32.9,30.10,East,94,1.2,1.2,97,0.00,SCT,,0.21,0.0,WeatherDisplay:10.37,2014-01-25 05:37:00,
2014-01-24 20:42:00,33.8,33.3,30.10,ENE,76,3.5,3.5,98,0.00,SCT,,0.21,0.0,WeatherDisplay:10.37,2014-01-25 05:42:00,
2014-01-24 20:47:00,34.0,33.5,30.11,ENE,76,2.3,2.3,98,0.00,SCT,,0.21,0.0,WeatherDisplay:10.37,2014-01-25 05:47:00,
2014-01-24 20:52:00,34.0,33.5,30.10,ENE,76,2.3,2.3,98,0.00,SCT,,0.21,0.0,WeatherDisplay:10.37,2014-01-25 05:52:00,
2014-01-24 20:57:00,34.0,33.5,30.10,NE,44,3.5,3.5,98,0.00,SCT,,0.21,0.0,WeatherDisplay:10.37,2014-01-25 05:57:00,
2014-01-24 21:02:00,34.0,33.5,30.10,NE,44,2.3,2.3,98,0.00,SCT,,0.21,0.0,WeatherDisplay:10.37,2014-01-25 06:02:00,
2014-01-24 21:07:00,34.0,33.5,30.10,NE,44,2.3,2.3,98,0.00,SCT,,0.21,0.0,WeatherDisplay:10.37,2014-01-25 06:07:00,
2014-01-24 21:12:00,33.9,33.4,30.10,ENE,58,2.3,2.3,98,0.00,SCT,,0.21,0.0,WeatherDisplay:10.37,2014-01-25 06:12:00,
2014-01-24 21:17:00,33.9,33.4,30.10,NE,54,1.2,1.2,98,0.00,SCT,,0.21,0.0,WeatherDisplay:10.37,2014-01-25 06:17:00,
2014-01-24 21:22:00,34.0,33.5,30.10,NE,54,1.2,0.0,98,0.00,SCT,,0.21,0.0,WeatherDisplay:10.37,2014-01-25 06:22:00,
2014-01-24 21:27:00,34.0,33.5,30.10,NE,44,3.5,3.5,98,0.00,SCT,,0.21,0.0,WeatherDisplay:10.37,2014-01-25 06:27:00,
2014-01-24 21:32:00,34.1,33.6,30.10,NE,41,3.5,3.5,98,0.00,SCT,,0.21,0.0,WeatherDisplay:10.37,2014-01-25 06:32:00,
2014-01-24 21:37:00,34.1,33.6,30.10,NE,41,1.2,1.2,98,0.00,SCT,,0.21,0.0,WeatherDisplay:10.37,2014-01-25 06:37:00,
2014-01-24 21:42:00,34.2,33.7,30.10,ENE,69,3.5,3.5,98,0.00,SCT,,0.21,0.0,WeatherDisplay:10.37,2014-01-25 06:42:00,
2014-01-24 21:47:00,34.3,33.8,30.10,ENE,69,2.3,2.3,98,0.00,SCT,,0.21,0.0,WeatherDisplay:10.37,2014-01-25 06:47:00,
2014-01-24 21:52:00,34.3,33.8,30.10,East,79,3.5,3.5,98,0.00,SCT,,0.21,0.0,WeatherDisplay:10.37,2014-01-25 06:52:00,
2014-01-24 21:57:00,34.4,33.9,30.10,ENE,57,3.5,3.5,98,0.00,SCT,,0.21,0.0,WeatherDisplay:10.37,2014-01-25 06:57:00,
2014-01-24 22:02:00,34.4,33.9,30.10,ENE,67,3.5,3.5,98,0.00,BKN,,0.21,0.0,WeatherDisplay:10.37,2014-01-25 07:02:00,
2014-01-24 22:07:00,34.5,34.0,30.10,NE,40,3.5,3.5,98,0.00,BKN,,0.21,0.0,WeatherDisplay:10.37,2014-01-25 07:07:00,
2014-01-24 22:12:00,34.6,34.1,30.10,ENE,70,2.3,2.3,98,0.00,BKN,,0.21,0.0,WeatherDisplay:10.37,2014-01-25 07:12:00,
2014-01-24 22:17:00,34.6,34.1,30.10,East,84,3.5,3.5,98,0.00,BKN,,0.21,0.0,WeatherDisplay:10.37,2014-01-25 07:17:00,
2014-01-24 22:22:00,34.6,34.1,30.10,NE,39,5.0,5.0,98,0.00,BKN,,0.21,0.0,WeatherDisplay:10.37,2014-01-25 07:22:00,
2014-01-24 22:27:00,34.7,34.2,30.10,NE,36,1.2,1.2,98,0.00,BKN,,0.21,0.0,WeatherDisplay:10.37,2014-01-25 07:27:00,
2014-01-24 22:32:00,34.7,34.2,30.10,NE,36,2.3,2.3,98,0.00,BKN,,0.21,0.0,WeatherDisplay:10.37,2014-01-25 07:32:00,
2014-01-24 22:37:00,34.7,34.2,30.10,NE,38,3.5,3.5,98,0.00,BKN,,0.21,0.0,WeatherDisplay:10.37,2014-01-25 07:37:00,
2014-01-24 22:42:00,34.7,34.2,30.09,NNE,31,3.5,3.5,98,0.00,BKN,,0.21,0.0,WeatherDisplay:10.37,2014-01-25 07:42:00,
2014-01-24 22:47:00,34.7,34.2,30.10,NNE,23,3.5,3.5,98,0.00,BKN,,0.21,0.0,WeatherDisplay:10.37,2014-01-25 07:47:00,
2014-01-24 22:52:00,34.7,34.2,30.10,NE,43,3.5,3.5,98,0.00,BKN,,0.21,0.0,WeatherDisplay:10.37,2014-01-25 07:52:00,
2014-01-24 22:57:00,34.7,34.2,30.09,NE,42,3.5,3.5,98,0.00,BKN,,0.21,0.0,WeatherDisplay:10.37,2014-01-25 07:57:00,
2014-01-24 23:02:00,34.8,34.3,30.10,NE,51,4.6,4.6,98,0.00,OVC,,0.21,0.0,WeatherDisplay:10.37,2014-01-25 08:02:00,
2014-01-24 23:07:00,34.8,34.3,30.09,NE,38,3.5,3.5,98,0.00,OVC,,0.21,0.0,WeatherDisplay:10.37,2014-01-25 08:07:00,
2014-01-24 23:12:00,34.9,34.4,30.10,NE,40,5.0,5.0,98,0.00,OVC,,0.21,0.0,WeatherDisplay:10.37,2014-01-25 08:12:00,
2014-01-24 23:17:00,34.9,34.1,30.10,ENE,57,3.5,3.5,97,0.00,OVC,,0.21,0.0,WeatherDisplay:10.37,2014-01-25 08:17:00,
2014-01-24 23:22:00,34.9,34.1,30.10,ENE,66,5.8,5.8,97,0.00,OVC,,0.21,0.0,WeatherDisplay:10.37,2014-01-25 08:22:00,
2014-01-24 23:27:00,35.0,34.2,30.10,ENE,76,2.3,2.3,97,0.00,OVC,,0.21,0.0,WeatherDisplay:10.37,2014-01-25 08:27:00,
2014-01-24 23:32:00,35.0,34.2,30.10,NE,54,3.0,3.0,97,0.00,OVC,,0.21,0.0,WeatherDisplay:10.37,2014-01-25 08:32:00,
2014-01-24 23:37:00,35.0,34.2,30.09,East,88,3.5,3.5,97,0.00,OVC,,0.21,0.0,WeatherDisplay:10.37,2014-01-25 08:37:00,
2014-01-24 23:42:00,35.0,34.2,30.10,East,88,3.5,3.5,97,0.00,OVC,,0.21,0.0,WeatherDisplay:10.37,2014-01-25 08:42:00,
2014-01-24 23:47:00,35.0,34.2,30.09,ENE,67,2.3,2.3,97,0.00,OVC,,0.21,0.0,WeatherDisplay:10.37,2014-01-25 08:47:00,
2014-01-24 23:52:00,35.0,34.2,30.09,East,80,3.5,3.5,97,0.00,OVC,,0.21,0.0,WeatherDisplay:10.37,2014-01-25 08:52:00,
2014-01-24 23:57:00,35.0,34.2,30.09,East,85,3.5,3.5,97,0.00,OVC,,0.21,0.0,WeatherDisplay:10.37,2014-01-25 08:57:00,